RWZ389 UUBW-UWPS

Flight info

Callsign RWZ389
Flight time N/A
Altitude 31000
Route TOGMO2B TOGMO M56 ABAGI T662 PILEN PILEN2K
Aircraft SU95/M-SDE3GILORVW/S

Departure

Time 2026-04-27 18:02
Airport Zhukovsky International Airport (UUBW)

Arrival

Time N/A
Airport Saransk International Airport (UWPS)
Time Latitude Longitude Altitude Speed Heading
2026-04-27 17:31 55.56400 38.11939 396 ft 0 kts 221°
2026-04-27 17:40 55.56401 38.11940 396 ft 1 kts 221°
2026-04-27 17:40 55.56419 38.11970 395 ft 4 kts 227°
2026-04-27 17:40 55.56433 38.11997 394 ft 4 kts 225°
2026-04-27 17:40 55.56449 38.12031 396 ft 4 kts 227°
2026-04-27 17:41 55.56454 38.12032 396 ft 4 kts 121°
2026-04-27 17:41 55.56470 38.11997 396 ft 4 kts 138°
2026-04-27 17:41 55.56480 38.11981 395 ft 1 kts 139°
2026-04-27 17:51 55.56400 38.11939 396 ft 0 kts 221°
2026-04-27 17:54 55.56401 38.11940 396 ft 1 kts 221°
2026-04-27 17:54 55.56418 38.11969 394 ft 4 kts 227°
2026-04-27 17:55 55.56433 38.11996 392 ft 4 kts 225°
2026-04-27 17:55 55.56449 38.12030 396 ft 4 kts 229°
2026-04-27 17:55 55.56453 38.12033 394 ft 4 kts 121°
2026-04-27 17:55 55.56469 38.11997 396 ft 4 kts 133°
2026-04-27 17:56 55.56481 38.11978 395 ft 0 kts 139°
2026-04-27 17:58 55.56453 38.12020 394 ft 17 kts 137°
2026-04-27 17:58 55.56357 38.12211 396 ft 21 kts 131°
2026-04-27 17:58 55.56265 38.12395 396 ft 19 kts 133°
2026-04-27 17:58 55.56163 38.12611 396 ft 16 kts 132°
2026-04-27 17:59 55.56112 38.12712 394 ft 18 kts 125°
2026-04-27 17:59 55.56022 38.12947 396 ft 25 kts 135°
2026-04-27 17:59 55.55895 38.13194 396 ft 33 kts 135°
2026-04-27 17:59 55.55801 38.13395 395 ft 15 kts 138°
2026-04-27 18:00 55.55712 38.13553 396 ft 19 kts 132°
2026-04-27 18:00 55.55616 38.13747 396 ft 22 kts 132°
2026-04-27 18:00 55.55518 38.13949 396 ft 21 kts 131°
2026-04-27 18:00 55.55494 38.14150 392 ft 15 kts 54°
2026-04-27 18:01 55.55562 38.14289 394 ft 15 kts 59°
2026-04-27 18:01 55.55591 38.14357 394 ft 2 kts 335°
2026-04-27 18:01 55.55703 38.14119 394 ft 65 kts 311°
2026-04-27 18:01 55.56196 38.13182 394 ft 139 kts 315°
2026-04-27 18:02 55.56971 38.11792 834 ft 166 kts 308°
2026-04-27 18:02 55.57726 38.10282 2002 ft 159 kts 303°
2026-04-27 18:02 55.58372 38.08805 3315 ft 150 kts 295°
2026-04-27 18:02 55.58476 38.06869 4075 ft 180 kts 264°
2026-04-27 18:03 55.57718 38.04774 4642 ft 230 kts 233°
2026-04-27 18:03 55.56178 38.03345 5192 ft 280 kts 203°
2026-04-27 18:03 55.54137 38.03255 6044 ft 307 kts 173°
2026-04-27 18:03 55.52119 38.04566 7270 ft 309 kts 159°
2026-04-27 18:04 55.50172 38.06172 8482 ft 308 kts 161°
2026-04-27 18:04 55.48188 38.07610 9620 ft 308 kts 166°
2026-04-27 18:04 55.46131 38.08839 10417 ft 319 kts 168°
2026-04-27 18:04 55.43937 38.09954 10983 ft 337 kts 169°
2026-04-27 18:05 55.41640 38.11028 11904 ft 342 kts 169°
2026-04-27 18:05 55.39311 38.12088 12851 ft 348 kts 169°
2026-04-27 18:05 55.36944 38.13161 13724 ft 353 kts 169°
2026-04-27 18:05 55.34553 38.14247 14661 ft 355 kts 169°
2026-04-27 18:06 55.32143 38.15345 15542 ft 359 kts 169°
2026-04-27 18:06 55.29707 38.16454 16418 ft 363 kts 168°
2026-04-27 18:06 55.27281 38.17558 17280 ft 367 kts 168°
2026-04-27 18:06 55.24786 38.18693 18067 ft 371 kts 168°
2026-04-27 18:07 55.22270 38.19836 18806 ft 375 kts 168°
2026-04-27 18:07 55.19718 38.20994 19554 ft 379 kts 168°
2026-04-27 18:07 55.17154 38.22157 20275 ft 383 kts 168°
2026-04-27 18:07 55.14560 38.23332 21009 ft 387 kts 169°
2026-04-27 18:08 55.11973 38.24502 21724 ft 391 kts 169°
2026-04-27 18:08 55.09321 38.25699 22437 ft 395 kts 169°
2026-04-27 18:08 55.06650 38.26918 23113 ft 399 kts 166°
2026-04-27 18:08 55.06169 38.27186 23214 ft 401 kts 163°
2026-04-27 18:09 55.04771 38.28270 23550 ft 406 kts 153°
2026-04-27 18:09 55.02403 38.31022 24145 ft 410 kts 146°
2026-04-27 18:09 55.00076 38.33959 24743 ft 414 kts 145°
2026-04-27 18:09 54.97741 38.36939 25303 ft 417 kts 145°
2026-04-27 18:10 54.95443 38.39867 25644 ft 415 kts 146°
2026-04-27 18:10 54.93077 38.42853 26025 ft 423 kts 146°
2026-04-27 18:10 54.90676 38.45857 26580 ft 426 kts 146°
2026-04-27 18:10 54.88348 38.48758 27117 ft 429 kts 146°
2026-04-27 18:11 54.85914 38.51788 27636 ft 432 kts 146°
2026-04-27 18:11 54.83452 38.54848 28130 ft 436 kts 146°
2026-04-27 18:11 54.80974 38.57924 28645 ft 439 kts 146°
2026-04-27 18:11 54.78497 38.60997 29129 ft 443 kts 146°
2026-04-27 18:12 54.75964 38.64067 29593 ft 445 kts 149°
2026-04-27 18:12 54.73305 38.66853 29837 ft 452 kts 151°
2026-04-27 18:12 54.70573 38.69693 29986 ft 462 kts 151°
2026-04-27 18:12 54.67805 38.72571 30350 ft 465 kts 151°
2026-04-27 18:13 54.65005 38.75479 30467 ft 476 kts 151°
2026-04-27 18:13 54.62129 38.78461 30463 ft 489 kts 151°
2026-04-27 18:13 54.56177 38.84633 30468 ft 507 kts 151°
2026-04-27 18:14 54.50080 38.90949 30482 ft 515 kts 151°
2026-04-27 18:14 54.47003 38.94130 30669 ft 512 kts 151°
2026-04-27 18:14 54.43955 38.97277 30744 ft 511 kts 150°
2026-04-27 18:15 54.41105 39.00812 30548 ft 498 kts 140°
2026-04-27 18:15 54.38800 39.05096 30496 ft 479 kts 127°
2026-04-27 18:15 54.37114 39.09828 30505 ft 469 kts 116°
2026-04-27 18:15 54.35823 39.15050 30510 ft 481 kts 112°
2026-04-27 18:16 54.34539 39.20428 30511 ft 493 kts 112°
2026-04-27 18:16 54.33224 39.25919 30513 ft 502 kts 113°
2026-04-27 18:16 54.30544 39.37012 30517 ft 503 kts 113°
2026-04-27 18:17 54.27847 39.48087 30520 ft 502 kts 113°
2026-04-27 18:17 54.25154 39.59087 30528 ft 502 kts 113°
2026-04-27 18:18 54.22441 39.70116 30537 ft 500 kts 114°
2026-04-27 18:18 54.19755 39.80985 30543 ft 500 kts 114°
2026-04-27 18:19 54.17032 39.91943 30549 ft 500 kts 114°
2026-04-27 18:19 54.14298 40.02896 30557 ft 500 kts 114°
2026-04-27 18:20 54.11626 40.13851 30562 ft 500 kts 109°
2026-04-27 18:20 54.09649 40.25157 30565 ft 500 kts 107°
2026-04-27 18:21 54.07685 40.36534 30569 ft 500 kts 107°
2026-04-27 18:21 54.05703 40.47892 30572 ft 500 kts 107°
2026-04-27 18:22 54.03709 40.59227 30579 ft 499 kts 108°
2026-04-27 18:22 54.01705 40.70545 30583 ft 499 kts 108°
2026-04-27 18:23 53.99693 40.81835 30586 ft 499 kts 108°
2026-04-27 18:23 53.97684 40.93046 30588 ft 499 kts 108°
2026-04-27 18:24 53.95655 41.04295 30594 ft 499 kts 108°
2026-04-27 18:24 53.93760 41.15631 30599 ft 498 kts 106°
2026-04-27 18:25 53.91928 41.26994 30604 ft 498 kts 107°
2026-04-27 18:25 53.90064 41.38334 30607 ft 498 kts 107°
2026-04-27 18:26 53.88183 41.49626 30612 ft 498 kts 107°
2026-04-27 18:26 53.86288 41.60925 30621 ft 498 kts 107°
2026-04-27 18:27 53.84397 41.72123 30622 ft 497 kts 107°
2026-04-27 18:27 53.82480 41.83382 30631 ft 498 kts 108°
2026-04-27 18:28 53.80549 41.94615 30637 ft 497 kts 108°
2026-04-27 18:28 53.78607 42.05841 30640 ft 497 kts 108°
2026-04-27 18:29 53.76661 42.17032 30642 ft 496 kts 108°
2026-04-27 18:29 53.74701 42.28227 30651 ft 496 kts 108°
2026-04-27 18:30 53.72734 42.39394 30652 ft 496 kts 108°
2026-04-27 18:30 53.70755 42.50560 30656 ft 496 kts 108°
2026-04-27 18:31 53.68823 42.61673 30657 ft 497 kts 104°
2026-04-27 18:31 53.68419 42.73301 30659 ft 501 kts 84°
2026-04-27 18:32 53.69697 42.84876 30662 ft 502 kts 79°
2026-04-27 18:32 53.71043 42.96442 30657 ft 502 kts 80°
2026-04-27 18:33 53.72371 43.08032 30662 ft 502 kts 80°
2026-04-27 18:33 53.73683 43.19613 30667 ft 503 kts 80°
2026-04-27 18:34 53.74987 43.31234 30658 ft 503 kts 80°
2026-04-27 18:34 53.76281 43.42867 30658 ft 503 kts 81°
2026-04-27 18:35 53.77564 43.54520 30651 ft 502 kts 81°
2026-04-27 18:35 53.78196 43.60290 30382 ft 496 kts 81°
2026-04-27 18:35 53.78811 43.65929 29739 ft 490 kts 81°
2026-04-27 18:36 53.79421 43.71559 28862 ft 484 kts 81°
2026-04-27 18:36 53.80020 43.77117 28182 ft 476 kts 81°
2026-04-27 18:36 53.80607 43.82586 27459 ft 469 kts 81°
2026-04-27 18:36 53.81183 43.87974 26759 ft 462 kts 81°
2026-04-27 18:37 53.81745 43.93256 26487 ft 446 kts 81°
2026-04-27 18:37 53.82285 43.98346 26185 ft 431 kts 81°
2026-04-27 18:37 53.82633 44.01651 25850 ft 428 kts 81°
2026-04-27 18:37 53.83089 44.05989 25522 ft 417 kts 81°
2026-04-27 18:38 53.83592 44.10786 24870 ft 412 kts 80°
2026-04-27 18:38 53.84092 44.15581 24069 ft 413 kts 80°
2026-04-27 18:38 53.84586 44.20348 23485 ft 408 kts 80°
2026-04-27 18:38 53.85071 44.25055 22807 ft 403 kts 80°
2026-04-27 18:39 53.85391 44.28157 22326 ft 400 kts 80°
2026-04-27 18:39 53.86028 44.34351 21429 ft 397 kts 81°
2026-04-27 18:39 53.86339 44.37390 21042 ft 394 kts 81°
2026-04-27 18:39 53.86804 44.41946 20456 ft 391 kts 81°
2026-04-27 18:40 53.87263 44.46459 19877 ft 389 kts 81°
2026-04-27 18:40 53.87867 44.52438 19145 ft 385 kts 81°
2026-04-27 18:40 53.88170 44.55448 18774 ft 383 kts 81°
2026-04-27 18:40 53.88610 44.59822 18246 ft 380 kts 81°
2026-04-27 18:41 53.89050 44.64222 17681 ft 378 kts 82°
2026-04-27 18:41 53.89486 44.68606 17091 ft 375 kts 82°
2026-04-27 18:41 53.89906 44.72957 16502 ft 372 kts 84°
2026-04-27 18:41 53.90057 44.77316 15919 ft 369 kts 91°
2026-04-27 18:42 53.90103 44.81652 15346 ft 367 kts 90°
2026-04-27 18:42 53.90139 44.84575 14968 ft 366 kts 90°
2026-04-27 18:42 53.90214 44.90274 14239 ft 363 kts 89°
2026-04-27 18:42 53.90636 44.94472 13573 ft 363 kts 72°
2026-04-27 18:43 53.91731 44.98282 12871 ft 360 kts 54°
2026-04-27 18:43 53.93178 45.01762 12183 ft 358 kts 54°
2026-04-27 18:43 53.94613 45.05201 11516 ft 356 kts 54°
2026-04-27 18:43 53.96042 45.08637 10934 ft 355 kts 54°
2026-04-27 18:44 53.97457 45.12052 10407 ft 353 kts 54°
2026-04-27 18:44 53.98866 45.15462 9921 ft 352 kts 54°
2026-04-27 18:44 54.00250 45.18816 9730 ft 340 kts 54°
2026-04-27 18:44 54.01583 45.22056 9597 ft 328 kts 54°
2026-04-27 18:45 54.02869 45.25182 9411 ft 319 kts 54°
2026-04-27 18:45 54.04134 45.28262 9021 ft 316 kts 54°
2026-04-27 18:45 54.05534 45.31103 8607 ft 313 kts 45°
2026-04-27 18:45 54.07026 45.33788 8210 ft 312 kts 45°
2026-04-27 18:46 54.08508 45.36473 7805 ft 310 kts 45°
2026-04-27 18:46 54.09982 45.39152 7413 ft 309 kts 45°
2026-04-27 18:46 54.11445 45.41816 7033 ft 308 kts 44°
2026-04-27 18:46 54.13059 45.44171 6677 ft 303 kts 30°
2026-04-27 18:47 54.14820 45.46108 6298 ft 301 kts 29°
2026-04-27 18:47 54.16569 45.48044 5937 ft 299 kts 29°
2026-04-27 18:47 54.18308 45.49983 5547 ft 298 kts 29°
2026-04-27 18:47 54.20044 45.51923 5176 ft 297 kts 29°
2026-04-27 18:48 54.21798 45.53740 4810 ft 292 kts 17°
2026-04-27 18:48 54.23718 45.54379 4390 ft 276 kts 349°
2026-04-27 18:48 54.25495 45.53533 3921 ft 258 kts 321°